Retour au catalogue

COSMOS 2251 DEB

ActifLEO
NORAD 37537·DEBRIS·🇷🇺 Russia

Lancé Jun 16, 1993 depuis Plesetsk Cosmodrome

Loading…

Prochains Passages (prochaines 24 heures)

TLE

FraisSource: Space-Track

Époque: Sep 14, 2026, 08:22 UTC

1 37537U 93036BNS 26257.34929204  .00000292  00000-0  10417-3 0  9990
2 37537  74.0107 117.0354 0051628 193.4810 166.4968 14.37778587889940

Suivez COSMOS 2251 DEB en temps réel avec AllMySat

Download on the App Store